TimeMST,TemperatureF,Dew PointF,Humidity,Sea Level PressureIn,VisibilityMPH,Wind Direction,Wind SpeedMPH,Gust SpeedMPH,PrecipitationIn,Events,Conditions,WindDirDegrees,DateUTC
12:53 AM,18.0,8.1,65,29.88,10.0,West,3.5,-,N/A,,Clear,280,2013-02-26 07:53:00
1:53 AM,17.1,8.1,68,29.89,10.0,Calm,Calm,-,N/A,,Clear,0,2013-02-26 08:53:00
2:53 AM,19.9,10.0,65,29.84,10.0,WSW,3.5,-,N/A,,Scattered Clouds,240,2013-02-26 09:53:00
3:53 AM,21.0,10.0,63,29.83,10.0,WNW,4.6,-,N/A,,Scattered Clouds,300,2013-02-26 10:53:00
4:53 AM,27.0,16.0,63,29.83,10.0,NNW,10.4,-,N/A,,Overcast,330,2013-02-26 11:53:00
5:12 AM,24.8,17.6,74,29.76,2.5,NNW,16.1,24.2,0.00,Snow,Light Snow,330,2013-02-26 12:12:00
5:53 AM,23.0,17.1,78,29.92,2.0,NNW,13.8,21.9,0.00,Snow,Light Snow,330,2013-02-26 12:53:00
6:00 AM,23.0,17.6,80,29.79,1.2,NNW,15.0,20.7,0.01,Snow,Light Snow,330,2013-02-26 13:00:00
6:12 AM,21.2,17.6,86,29.79,1.0,NW,12.7,21.9,0.01,Snow,Light Snow,320,2013-02-26 13:12:00
6:27 AM,21.2,17.6,86,29.79,0.8,NW,18.4,25.3,N/A,Snow,Light Snow,320,2013-02-26 13:27:00
6:53 AM,21.9,18.0,85,29.93,0.8,NW,16.1,23.0,0.03,Snow,Light Snow,320,2013-02-26 13:53:00
7:14 AM,21.2,15.8,80,29.79,3.0,NW,17.3,26.5,0.00,Snow,Light Snow,310,2013-02-26 14:14:00
7:26 AM,21.2,15.8,80,29.79,9.0,NW,18.4,25.3,0.00,,Overcast,310,2013-02-26 14:26:00
7:53 AM,23.0,15.1,72,29.95,10.0,NW,12.7,23.0,0.00,,Overcast,310,2013-02-26 14:53:00
8:25 AM,23.0,15.8,74,29.80,2.5,NW,13.8,21.9,0.00,Snow,Light Snow,310,2013-02-26 15:25:00
8:34 AM,23.0,17.6,80,29.80,1.0,NW,15.0,-,0.00,Snow,Light Snow,320,2013-02-26 15:34:00
8:53 AM,21.9,17.1,82,29.96,1.0,NW,20.7,27.6,0.00,Snow,Light Snow,310,2013-02-26 15:53:00
9:36 AM,24.8,15.8,69,29.79,6.0,NW,16.1,24.2,0.00,Snow,Light Snow,310,2013-02-26 16:36:00
9:53 AM,24.1,15.1,69,29.94,10.0,NW,13.8,25.3,0.00,,Overcast,310,2013-02-26 16:53:00
10:53 AM,25.0,15.1,66,29.93,7.0,NW,20.7,27.6,0.00,,Overcast,320,2013-02-26 17:53:00
11:16 AM,24.8,17.6,74,29.80,2.0,NW,20.7,29.9,0.00,Snow,Light Snow,320,2013-02-26 18:16:00
11:26 AM,24.8,17.6,74,29.80,1.8,NW,19.6,29.9,0.00,Snow,Light Snow,320,2013-02-26 18:26:00
11:39 AM,24.8,17.6,74,29.80,1.2,NNW,18.4,29.9,0.00,Snow,Light Snow,330,2013-02-26 18:39:00
11:53 AM,24.1,18.0,77,29.95,1.0,NNW,23.0,29.9,0.00,Snow,Light Snow,330,2013-02-26 18:53:00
12:19 PM,24.8,17.6,74,29.80,0.8,NNW,18.4,32.2,0.01,Snow,Light Snow,330,2013-02-26 19:19:00
12:49 PM,24.8,19.4,80,29.80,1.0,NNW,23.0,28.8,0.01,Snow,Light Snow,340,2013-02-26 19:49:00
12:53 PM,25.0,19.0,78,29.95,1.0,NNW,21.9,28.8,0.01,Snow,Light Snow,330,2013-02-26 19:53:00
1:30 PM,24.8,19.4,80,29.81,0.8,North,20.7,28.8,0.00,Snow,Light Snow,350,2013-02-26 20:30:00
1:48 PM,24.8,19.4,80,29.81,1.0,North,17.3,29.9,0.01,Snow,Light Snow,350,2013-02-26 20:48:00
1:53 PM,25.0,19.9,81,29.98,0.8,NNW,17.3,26.5,0.01,Snow,Light Snow,340,2013-02-26 20:53:00
2:53 PM,24.1,19.0,81,29.99,0.8,North,21.9,36.8,0.01,Snow,Light Snow,350,2013-02-26 21:53:00
3:13 PM,24.8,19.4,80,29.85,1.0,NNW,26.5,39.1,0.00,Snow,Light Snow,340,2013-02-26 22:13:00
3:21 PM,24.8,19.4,80,29.86,0.8,North,25.3,38.0,0.00,Snow,Light Snow,350,2013-02-26 22:21:00
3:28 PM,24.8,19.4,80,29.86,1.0,North,28.8,38.0,0.00,Snow,Light Snow,350,2013-02-26 22:28:00
3:35 PM,23.0,19.4,86,29.86,0.8,NNW,27.6,36.8,0.00,Snow,Light Snow,340,2013-02-26 22:35:00
3:53 PM,23.0,18.0,81,30.02,0.8,North,25.3,39.1,0.00,Snow,Light Snow,350,2013-02-26 22:53:00
4:04 PM,23.0,17.6,80,29.87,1.0,North,24.2,40.3,0.00,Snow,Light Snow,350,2013-02-26 23:04:00
4:11 PM,23.0,17.6,80,29.87,0.8,North,25.3,36.8,0.00,Snow,Light Snow,350,2013-02-26 23:11:00
4:18 PM,23.0,17.6,80,29.88,1.0,NNW,26.5,36.8,0.00,Snow,Light Snow,340,2013-02-26 23:18:00
4:28 PM,23.0,17.6,80,29.88,0.8,North,23.0,36.8,0.00,Snow,Light Snow,350,2013-02-26 23:28:00
4:48 PM,21.2,17.6,86,29.89,1.5,North,25.3,38.0,0.00,Snow,Light Snow,350,2013-02-26 23:48:00
4:53 PM,21.9,18.0,85,30.02,1.5,North,23.0,34.5,0.00,Snow,Light Snow,350,2013-02-26 23:53:00
5:07 PM,23.0,17.6,80,29.90,1.8,NNW,24.2,35.7,0.00,Snow,Light Snow,340,2013-02-27 00:07:00
5:38 PM,21.2,17.6,86,29.92,1.0,NNW,23.0,38.0,0.00,Snow,Light Snow,340,2013-02-27 00:38:00
5:53 PM,21.9,18.0,85,30.08,1.2,NNW,21.9,27.6,0.01,Snow,Light Snow,340,2013-02-27 00:53:00
6:39 PM,21.2,17.6,86,29.95,1.2,NNW,15.0,24.2,0.00,Snow,Light Snow,340,2013-02-27 01:39:00
6:53 PM,21.9,18.0,85,30.12,1.2,NNW,18.4,31.1,0.00,Snow,Light Snow,340,2013-02-27 01:53:00
7:13 PM,21.2,17.6,86,29.97,2.0,North,19.6,33.4,0.00,Snow,Light Snow,350,2013-02-27 02:13:00
7:23 PM,21.2,17.6,86,29.98,3.0,North,31.1,42.6,0.00,Snow,Light Snow,350,2013-02-27 02:23:00
7:44 PM,21.2,17.6,86,29.99,1.8,North,19.6,32.2,0.00,Snow,Light Snow,350,2013-02-27 02:44:00
7:53 PM,21.9,17.1,82,30.14,1.2,North,17.3,35.7,0.00,Snow,Light Snow,350,2013-02-27 02:53:00
8:20 PM,21.2,17.6,86,30.01,3.0,NNW,21.9,31.1,0.01,Snow,Light Snow,340,2013-02-27 03:20:00
8:29 PM,21.2,17.6,86,30.01,5.0,NNW,21.9,32.2,0.01,,Overcast,340,2013-02-27 03:29:00
8:53 PM,21.9,16.0,78,30.19,7.0,NNW,21.9,32.2,0.01,,Overcast,340,2013-02-27 03:53:00
9:48 PM,21.2,15.8,80,30.04,2.5,NNW,18.4,27.6,0.00,Snow,Light Snow,340,2013-02-27 04:48:00
9:53 PM,21.9,16.0,78,30.20,2.5,NNW,16.1,27.6,0.00,Snow,Light Snow,340,2013-02-27 04:53:00
10:01 PM,21.2,15.8,80,30.05,3.0,NNW,15.0,25.3,0.00,Snow,Light Snow,340,2013-02-27 05:01:00
10:26 PM,21.2,15.8,80,30.05,2.5,NNW,16.1,23.0,0.00,Snow,Light Snow,330,2013-02-27 05:26:00
10:42 PM,21.2,15.8,80,30.06,2.0,NNW,12.7,24.2,0.00,Snow,Light Snow,330,2013-02-27 05:42:00
10:53 PM,21.0,16.0,81,30.21,3.0,NW,10.4,23.0,0.00,Snow,Light Snow,320,2013-02-27 05:53:00
11:53 PM,19.9,12.9,74,30.23,10.0,NW,15.0,-,0.01,,Overcast,320,2013-02-27 06:53:00